Cleveland Burke, OH

3:27 PM EDT on June 23, 2017 (GMT -0400)
Burke Lakefront

Weather History for KBKL - April, 2012

Change the Weather History Date:

Thursday, April 19, 2012

  Actual Average Record
Temperature  
Mean Temperature 64 °F -  
Max Temperature 75 °F 55 °F 80 °F (2005)
Min Temperature 54 °F 41 °F 35 °F (1997)
Growing Degree Days 14 (Base 50)    
Moisture  
Dew Point 43 °F    
Average Humidity 47    
Maximum Humidity 59    
Minimum Humidity 37    
Precipitation  
Precipitation 0.00 in - - ()
Sea Level Pressure  
Sea Level Pressure 29.98 in    
Wind  
Wind Speed 8 mph (South)    
Max Wind Speed 14 mph    
Max Gust Speed 20 mph    
Visibility 10 miles    
Events      
Averages and records for this station are not official NWS values.
T = Trace of Precipitation, MM = Missing Value Source: NWS Daily Summary

Daily Weather History Graph

Daily Weather History Graph

Search for Another Location

Airport or City:

Trip Planner

Search our weather history database for the weather conditions in past years. The results will help you decide how hot, cold, wet, or windy it might be!

Date:

Astronomy

Apr. 19, 2012 Rise Set
Actual Time 6:40 AM EDT 8:12 PM EDT
Civil Twilight 6:10 AM EDT 8:41 PM EDT
Nautical Twilight 5:35 AM EDT 9:16 PM EDT
Astronomical Twilight 4:58 AM EDT 9:54 PM EDT
Moon 5:34 AM EDT (4/19) 6:58 PM EDT (4/19)
Length of Visible Light 14h 30m
Length of Day
13h 32m
Waning Crescent, 2% of the Moon is Illuminated
Apr 19
Waning Crescent
Apr 21
New
Apr 29
First Quarter
May 5
Full
May 12
Last Quarter

Hourly Weather History & Observations

Time (EDT) Temp. Dew Point Humidity Pressure Visibility Wind Dir Wind Speed Gust Speed Precip Events Conditions
12:53 AM 55.9 °F 37.0 °F 49% 30.03 in 10.0 mi SSE 6.9 mph - N/A   Clear
1:53 AM 55.0 °F 37.0 °F 51% 30.03 in 10.0 mi South 6.9 mph - N/A   Clear
2:53 AM 55.0 °F 37.0 °F 51% 30.01 in 10.0 mi South 8.1 mph - N/A   Clear
3:53 AM 54.0 °F 37.0 °F 53% 30.01 in 10.0 mi SSE 9.2 mph - N/A   Clear
4:53 AM 54.0 °F 37.0 °F 53% 30.01 in 10.0 mi SSE 8.1 mph - N/A   Mostly Cloudy
5:53 AM 55.0 °F 39.0 °F 55% 30.02 in 10.0 mi South 10.4 mph - N/A   Scattered Clouds
6:53 AM 54.0 °F 39.9 °F 59% 30.02 in 10.0 mi South 8.1 mph - N/A   Overcast
7:53 AM 55.9 °F 41.0 °F 57% 30.03 in 10.0 mi South 8.1 mph - N/A   Mostly Cloudy
8:53 AM 57.9 °F 42.1 °F 56% 30.04 in 10.0 mi SSW 9.2 mph - N/A   Overcast
9:53 AM 61.0 °F 42.1 °F 50% 30.03 in 10.0 mi SSW 9.2 mph - N/A   Overcast
10:53 AM 62.1 °F 42.1 °F 48% 30.04 in 9.0 mi SSW 8.1 mph 16.1 mph N/A   Overcast
11:53 AM 66.0 °F 44.1 °F 45% 30.04 in 10.0 mi South 9.2 mph - N/A   Mostly Cloudy
12:53 PM 69.1 °F 48.0 °F 47% 30.03 in 10.0 mi SSW 12.7 mph - N/A   Scattered Clouds
1:53 PM 71.1 °F 46.9 °F 42% 30.01 in 10.0 mi South 13.8 mph 17.3 mph N/A   Clear
2:53 PM 73.0 °F 46.9 °F 39% 29.98 in 10.0 mi SSW 8.1 mph - N/A   Scattered Clouds
3:53 PM 75.0 °F 48.0 °F 38% 29.95 in 8.0 mi SSW 8.1 mph - N/A   Scattered Clouds
4:53 PM 75.0 °F 46.9 °F 37% 29.92 in 10.0 mi SSW 11.5 mph 19.6 mph N/A   Scattered Clouds
5:53 PM 69.1 °F 48.9 °F 49% 29.91 in 10.0 mi NNW 5.8 mph - N/A   Mostly Cloudy
6:53 PM 66.9 °F 48.9 °F 52% 29.91 in 10.0 mi Calm Calm - N/A   Mostly Cloudy
7:53 PM 72.0 °F 44.1 °F 37% 29.90 in 10.0 mi South 8.1 mph - N/A   Mostly Cloudy
8:53 PM 72.0 °F 45.0 °F 38% 29.90 in 10.0 mi South 8.1 mph - N/A   Mostly Cloudy
9:53 PM 70.0 °F 45.0 °F 41% 29.91 in 10.0 mi South 10.4 mph - N/A   Clear
10:53 PM 69.1 °F 45.0 °F 42% 29.89 in 10.0 mi South 12.7 mph - N/A   Clear
11:53 PM 68.0 °F 45.0 °F 43% 29.88 in 10.0 mi South 9.2 mph - N/A   Clear